Satellite: NO-44
Catalog number: 26931
Epoch time:      11110.53591776
Element set:    0733
Inclination:      067.0500 deg
RA of node:       132.0777 deg
Eccentricity:    0.0007268
Arg of perigee:   265.9047 deg
Mean anomaly:     094.1213 deg
Mean motion:   14.29649900 rev/day
Decay rate:       -6.3e-07 rev/day^2
Epoch rev:           49868
Checksum:              310

Satellite: SO-50
Catalog number: 27607
Epoch time:      11110.57928485
Element set:    0446
Inclination:      064.5579 deg
RA of node:       142.7244 deg
Eccentricity:    0.0066667
Arg of perigee:   334.1984 deg
Mean anomaly:     025.5815 deg
Mean motion:   14.71704472 rev/day
Decay rate:       5.56e-06 rev/day^2
Epoch rev:           44761
Checksum:              327

Satellite: CO-55
Catalog number: 27844
Epoch time:      11111.55740853
Element set:      92
Inclination:      098.7073 deg
RA of node:       121.0805 deg
Eccentricity:    0.0010163
Arg of perigee:   007.0696 deg
Mean anomaly:     353.0627 deg
Mean motion:   14.20795725 rev/day
Decay rate:       2.01e-06 rev/day^2
Epoch rev:           40487
Checksum:              282

Satellite: CO-57
Catalog number: 27848
Epoch time:      11110.57642309
Element set:    0041
Inclination:      098.7140 deg
RA of node:       119.2842 deg
Eccentricity:    0.0010273
Arg of perigee:   014.4704 deg
Mean anomaly:     345.6753 deg
Mean motion:   14.20576606 rev/day
Decay rate:       1.48e-06 rev/day^2
Epoch rev:           40468
Checksum:              290

Satellite: AO-51
Catalog number: 28375
Epoch time:      11110.60721679
Element set:     949
Inclination:      098.0934 deg
RA of node:       092.0959 deg
Eccentricity:    0.0082789
Arg of perigee:   244.9960 deg
Mean anomaly:     114.2596 deg
Mean motion:   14.40748426 rev/day
Decay rate:       2.03e-06 rev/day^2
Epoch rev:           35777
Checksum:              342

Satellite: CP3
Catalog number: 31129
Epoch time:      11111.72927652
Element set:     849
Inclination:      097.9023 deg
RA of node:       139.1945 deg
Eccentricity:    0.0101451
Arg of perigee:   357.0282 deg
Mean anomaly:     003.0225 deg
Mean motion:   14.52446444 rev/day
Decay rate:       5.03e-06 rev/day^2
Epoch rev:           21264
Checksum:              268

Satellite: CO-65
Catalog number: 32785
Epoch time:      11110.62004088
Element set:    0970
Inclination:      097.8523 deg
RA of node:       175.6019 deg
Eccentricity:    0.0015156
Arg of perigee:   008.3069 deg
Mean anomaly:     351.8407 deg
Mean motion:   14.81937659 rev/day
Decay rate:      1.176e-05 rev/day^2
Epoch rev:           16101
Checksum:              305

Satellite: KKS-1
Catalog number: 33493
Epoch time:      11111.70260425
Element set:     508
Inclination:      098.1167 deg
RA of node:       239.5208 deg
Eccentricity:    0.0019123
Arg of perigee:   221.4526 deg
Mean anomaly:     138.5237 deg
Mean motion:   14.81557531 rev/day
Decay rate:      1.935e-05 rev/day^2
Epoch rev:           12115
Checksum:              272

Satellite: SOHLA-1
Catalog number: 33496
Epoch time:      11111.81109633
Element set:     390
Inclination:      098.0746 deg
RA of node:       222.2301 deg
Eccentricity:    0.0005733
Arg of perigee:   309.6447 deg
Mean anomaly:     050.4245 deg
Mean motion:   14.69595997 rev/day
Decay rate:       3.43e-06 rev/day^2
Epoch rev:           12020
Checksum:              280

Satellite: TISAT-1
Catalog number: 36799
Epoch time:      11111.70392539
Element set:     783
Inclination:      098.1059 deg
RA of node:       179.3857 deg
Eccentricity:    0.0016597
Arg of perigee:   099.3015 deg
Mean anomaly:     261.0075 deg
Mean motion:   14.80466898 rev/day
Decay rate:      1.219e-05 rev/day^2
Epoch rev:            4195
Checksum:              339

Satellite: STUDSAT
Catalog number: 36801
Epoch time:      11110.76653639
Element set:    0179
Inclination:      098.1086 deg
RA of node:       178.2857 deg
Eccentricity:    0.0014882
Arg of perigee:   090.6809 deg
Mean anomaly:     269.6107 deg
Mean motion:   14.80386418 rev/day
Decay rate:      3.485e-05 rev/day^2
Epoch rev:           04180
Checksum:              324

Satellite: RAX
Catalog number: 37223
Epoch time:      11089.46431449
Element set:    0122
Inclination:      071.9716 deg
RA of node:       212.4675 deg
Eccentricity:    0.0019443
Arg of perigee:   068.5267 deg
Mean anomaly:     291.7923 deg
Mean motion:   14.77296529 rev/day
Decay rate:       6.60e-06 rev/day^2
Epoch rev:           01926
Checksum:              313

Satellite: OOREOS
Catalog number: 37224
Epoch time:      11076.42207246
Element set:    0109
Inclination:      071.9712 deg
RA of node:       241.3960 deg
Eccentricity:    0.0017800
Arg of perigee:   096.5373 deg
Mean anomaly:     263.7815 deg
Mean motion:   14.76929834 rev/day
Decay rate:       8.68e-06 rev/day^2
Epoch rev:           01732
Checksum:              300

Satellite: FAST1
Catalog number: 37227
Epoch time:      11111.42067481
Element set:    0008
Inclination:      071.9707 deg
RA of node:       164.4317 deg
Eccentricity:    0.0016208
Arg of perigee:   022.0538 deg
Mean anomaly:     338.1278 deg
Mean motion:   14.76558372 rev/day
Decay rate:       2.80e-06 rev/day^2
Epoch rev:           00094
Checksum:              273

